QPF
0.03 0.03 0.03 0.03 0.02 0.01 0.02 0.02 0.00 0.00 0.00 0.00 0.00 0.00 0.00 0.00 0.00 0.00 0.00 0.00 0.00 0.00 0.00 0.00 0.00 0.00 0.00 0.00 0.00 0.00 0.00 0.00 0.00 0.00 0.00 0.00 0.00 0.00 0.00 0.05 0.01 0.00 0.00
0.02 0.02 0.01 0.01 0.01 0.02 0.03 0.03 0.02 0.00 0.00 0.00 0.00 0.00 0.00 0.00 0.00 0.00 0.00 0.00 0.00 0.00 0.00 0.00 0.00 0.00 0.00 0.00 0.00 0.00 0.00 0.00 0.00 0.00 0.00 0.00 0.00 0.00 0.00 0.01 0.04 0.00 0.00
0.00 0.01 0.01 0.00 0.00 0.01 0.03 0.04 0.03 0.03 0.01 0.00 0.00 0.00 0.00 0.00 0.00 0.00 0.00 0.00 0.00 0.00 0.00 0.00 0.00 0.00 0.00 0.00 0.00 0.02 0.00 0.00 0.00 0.00 0.00 0.00 0.00 0.00 0.00 0.00 0.01 0.01 0.00
0.00 0.00 0.00 0.00 0.01 0.01 0.00 0.00 0.01 0.01 0.01 0.00 0.00 0.00 0.00 0.00 0.00 0.00 0.00 0.00 0.00 0.00 0.00 0.00 0.00 0.00 0.00 0.00 0.01 0.05 0.06 0.00 0.00 0.00 0.00 0.00 0.00 0.00 0.00 0.00 0.00 0.01 0.00
0.00 0.00 0.00 0.00 0.00 0.00 0.00 0.00 0.00 0.00 0.00 0.00 0.00 0.00 0.00 0.00 0.00 0.00 0.00 0.00 0.00 0.00 0.00 0.00 0.00 0.00 0.00 0.00 0.00 0.00 0.03 0.02 0.00 0.00 0.00 0.00 0.00 0.00 0.00 0.00 0.00 0.00 0.01
0.00 0.00 0.00 0.00 0.00 0.00 0.00 0.00 0.00 0.00 0.00 0.00 0.00 0.00 0.00 0.00 0.00 0.00 0.00 0.00 0.00 0.00 0.00 0.00 0.00 0.00 0.00 0.00 0.00 0.00 0.00 0.03 0.01 0.00 0.00 0.00 0.00 0.00 0.00 0.00 0.00 0.00 0.00
0.00 0.00 0.00 0.00 0.00 0.00 0.00 0.00 0.00 0.00 0.00 0.00 0.00 0.00 0.00 0.00 0.00 0.00 0.00 0.00 0.00 0.00 0.00 0.00 0.00 0.00 0.00 0.00 0.00 0.00 0.00 0.01 0.06 0.02 0.00 0.00 0.00 0.00 0.00 0.00 0.00 0.00 0.00
0.00 0.00 0.00 0.00 0.00 0.00 0.00 0.00 0.00 0.00 0.00 0.00 0.00 0.00 0.00 0.00 0.00 0.00 0.00 0.00 0.00 0.00 0.00 0.00 0.00 0.00 0.00 0.00 0.00 0.00 0.00 0.00 0.01 0.05 0.03 0.00 0.00 0.00 0.00 0.00 0.00 0.00 0.00
0.00 0.00 0.00 0.00 0.00 0.00 0.00 0.00 0.00 0.00 0.00 0.00 0.00 0.00 0.00 0.00 0.00 0.00 0.00 0.00 0.00 0.00 0.00 0.00 0.00 0.00 0.00 0.00 0.00 0.00 0.00 0.00 0.00 0.01 0.04 0.06 0.03 0.00 0.00 0.00 0.00 0.00 0.00
0.00 0.00 0.00 0.00 0.00 0.00 0.00 0.00 0.00 0.00 0.00 0.00 0.00 0.00 0.00 0.00 0.00 0.00 0.00 0.00 0.00 0.00 0.00 0.00 0.00 0.00 0.00 0.00 0.00 0.00 0.00 0.00 0.00 0.00 0.00 0.02 0.05 0.06 0.03 0.00 0.00 0.00 0.00
0.00 0.00 0.00 0.00 0.00 0.00 0.00 0.00 0.00 0.00 0.00 0.00 0.00 0.00 0.00 0.00 0.00 0.00 0.00 0.00 0.00 0.00 0.00 0.00 0.00 0.00 0.00 0.00 0.00 0.00 0.00 0.00 0.00 0.00 0.00 0.00 0.01 0.03 0.05 0.06 0.03 0.01 0.00
0.00 0.00 0.00 0.00 0.00 0.00 0.00 0.00 0.00 0.00 0.00 0.00 0.00 0.00 0.00 0.00 0.00 0.00 0.00 0.00 0.00 0.00 0.00 0.00 0.00 0.00 0.00 0.00 0.00 0.00 0.00 0.00 0.00 0.00 0.00 0.00 0.00 0.00 0.01 0.02 0.04 0.06 0.04
0.00 0.00 0.00 0.00 0.00 0.00 0.00 0.00 0.00 0.00 0.00 0.00 0.00 0.00 0.00 0.00 0.00 0.00 0.00 0.00 0.00 0.00 0.00 0.00 0.00 0.00 0.00 0.00 0.00 0.00 0.00 0.00 0.00 0.00 0.00 0.00 0.00 0.00 0.00 0.00 0.00 0.01 0.03
0.00 0.00 0.00 0.00 0.00 0.00 0.00 0.00 0.00 0.00 0.00 0.00 0.00 0.00 0.00 0.00 0.00 0.00 0.00 0.00 0.00 0.00 0.00 0.00 0.00 0.00 0.00 0.00 0.00 0.00 0.00 0.00 0.00 0.00 0.00 0.00 0.00 0.00 0.00 0.00 0.00 0.00 0.00
0.00 0.00 0.00 0.00 0.00 0.00 0.00 0.00 0.00 0.00 0.00 0.00 0.00 0.00 0.00 0.00 0.00 0.00 0.00 0.00 0.00 0.00 0.00 0.00 0.00 0.00 0.00 0.00 0.00 0.00 0.00 0.00 0.00 0.00 0.00 0.00 0.00 0.00 0.00 0.00 0.00 0.00 0.00
0.00 0.00 0.00 0.00 0.00 0.00 0.00 0.00 0.00 0.00 0.00 0.00 0.00 0.00 0.00 0.00 0.00 0.00 0.00 0.00 0.00 0.00 0.00 0.00 0.00 0.00 0.00 0.00 0.00 0.00 0.00 0.00 0.00 0.00 0.00 0.00 0.00 0.00 0.00 0.00 0.00 0.00 0.00
0.00 0.00 0.00 0.00 0.00 0.00 0.00 0.00 0.00 0.00 0.00 0.00 0.00 0.00 0.00 0.00 0.00 0.00 0.00 0.00 0.00 0.00 0.00 0.00 0.00 0.00 0.00 0.00 0.00 0.00 0.00 0.00 0.00 0.00 0.00 0.00 0.00 0.00 0.00 0.00 0.00 0.00 0.00
0.00 0.00 0.00 0.00 0.00 0.00 0.00 0.00 0.00 0.00 0.00 0.00 0.00 0.00 0.00 0.00 0.00 0.00 0.00 0.00 0.00 0.00 0.00 0.00 0.00 0.00 0.00 0.00 0.00 0.00 0.00 0.00 0.00 0.00 0.00 0.00 0.00 0.00 0.00 0.00 0.00 0.00 0.00
0.00 0.00 0.00 0.00 0.00 0.00 0.00 0.00 0.00 0.00 0.00 0.00 0.00 0.00 0.00 0.00 0.00 0.00 0.00 0.00 0.00 0.00 0.00 0.00 0.00 0.00 0.00 0.00 0.00 0.00 0.00 0.00 0.00 0.00 0.00 0.00 0.00 0.00 0.00 0.00 0.00 0.00 0.00
0.00 0.00 0.00 0.00 0.00 0.00 0.00 0.00 0.00 0.00 0.00 0.00 0.00 0.00 0.00 0.00 0.00 0.00 0.00 0.00 0.00 0.00 0.00 0.00 0.00 0.00 0.00 0.00 0.00 0.00 0.00 0.00 0.00 0.00 0.00 0.00 0.00 0.00 0.00 0.00 0.00 0.00 0.00
0.00 0.00 0.00 0.00 0.00 0.00 0.00 0.00 0.00 0.00 0.00 0.00 0.00 0.00 0.00 0.00 0.00 0.00 0.00 0.00 0.00 0.00 0.00 0.00 0.00 0.00 0.00 0.00 0.00 0.00 0.00 0.00 0.00 0.00 0.00 0.00 0.00 0.00 0.00 0.00 0.00 0.00 0.00
0.00 0.00 0.00 0.00 0.00 0.00 0.00 0.00 0.00 0.00 0.00 0.00 0.00 0.00 0.00 0.00 0.00 0.00 0.00 0.00 0.00 0.00 0.00 0.00 0.00 0.00 0.00 0.00 0.00 0.00 0.00 0.00 0.00 0.00 0.00 0.00 0.00 0.00 0.00 0.00 0.00 0.00 0.00
0.00 0.00 0.00 0.00 0.00 0.00 0.00 0.00 0.00 0.00 0.00 0.00 0.00 0.00 0.00 0.00 0.00 0.00 0.00 0.00 0.00 0.00 0.00 0.00 0.00 0.00 0.00 0.00 0.00 0.00 0.00 0.00 0.00 0.00 0.00 0.00 0.00 0.00 0.00 0.00 0.00 0.00 0.00
0.00 0.00 0.00 0.00 0.00 0.00 0.00 0.00 0.00 0.00 0.00 0.00 0.00 0.00 0.00 0.00 0.00 0.00 0.00 0.00 0.00 0.00 0.00 0.00 0.00 0.00 0.00 0.00 0.00 0.00 0.00 0.00 0.00 0.00 0.00 0.00 0.00 0.00 0.00 0.00 0.00 0.00 0.00
0.00 0.00 0.00 0.00 0.00 0.00 0.00 0.00 0.00 0.00 0.00 0.00 0.00 0.00 0.00 0.00 0.00 0.00 0.00 0.00 0.00 0.00 0.00 0.00 0.00 0.00 0.00 0.00 0.00 0.00 0.00 0.00 0.00 0.00 0.00 0.00 0.00 0.00 0.00 0.00 0.00 0.00 0.00
0.00 0.00 0.00 0.00 0.00 0.00 0.00 0.00 0.00 0.00 0.00 0.00 0.00 0.00 0.00 0.00 0.00 0.00 0.00 0.01 0.00 0.00 0.00 0.00 0.00 0.00 0.00 0.00 0.00 0.00 0.00 0.00 0.00 0.00 0.00 0.00 0.00 0.00 0.00 0.00 0.00 0.00 0.00
MSLP
1020.92 1020.81 1021.00 1020.73 1020.86 1020.92 1020.88 1020.72 1020.21 1019.88 1019.53 1019.27 1019.06 1018.93 1018.96 1019.05 1019.19 1019.24 1019.46 1019.47 1019.59 1019.76 1019.84 1019.94 1020.12 1020.12 1020.14 1020.17 1020.34 1020.61 1020.82 1020.64 1020.51 1020.41 1020.33 1020.19 1020.04 1020.16 1020.34 1020.30 1020.36 1020.30 1020.33
1021.19 1021.30 1021.32 1021.54 1021.01 1021.03 1021.19 1021.00 1021.11 1020.72 1020.18 1020.05 1019.78 1019.44 1019.45 1019.37 1019.26 1019.38 1019.35 1019.53 1019.50 1019.53 1019.74 1019.80 1020.03 1020.11 1020.16 1020.24 1020.27 1020.55 1020.71 1020.83 1020.64 1020.67 1020.64 1020.56 1020.51 1020.24 1020.23 1020.53 1020.63 1020.50 1020.62
1021.39 1021.43 1021.52 1021.75 1021.61 1021.31 1021.19 1020.91 1021.07 1021.12 1020.66 1020.28 1020.31 1019.99 1019.68 1019.84 1019.63 1019.37 1019.38 1019.24 1019.54 1019.56 1019.65 1019.72 1019.77 1019.99 1020.12 1020.15 1020.19 1020.33 1020.61 1020.67 1020.85 1020.79 1020.83 1020.74 1020.70 1020.86 1020.58 1020.43 1020.52 1020.77 1020.89
1021.87 1021.88 1021.97 1022.00 1021.96 1021.74 1021.13 1021.21 1021.37 1021.55 1021.23 1020.90 1020.83 1020.55 1020.30 1020.03 1020.02 1019.73 1019.61 1019.41 1019.25 1019.35 1019.66 1019.75 1019.76 1019.86 1020.02 1020.07 1020.09 1020.10 1020.36 1020.53 1020.68 1020.76 1020.81 1020.99 1020.87 1020.81 1020.94 1020.81 1020.57 1020.68 1020.85
1022.48 1022.46 1022.57 1022.41 1022.02 1021.85 1021.87 1021.93 1021.99 1021.99 1021.81 1021.63 1021.13 1020.90 1020.81 1020.50 1020.19 1019.96 1019.81 1019.63 1019.38 1019.35 1019.34 1019.64 1019.75 1019.81 1019.98 1020.16 1020.08 1019.98 1020.03 1020.46 1020.62 1020.61 1020.67 1020.78 1020.88 1020.86 1020.97 1020.99 1021.03 1020.73 1020.81
1022.87 1022.75 1023.05 1022.77 1022.40 1022.37 1022.33 1022.60 1022.43 1022.29 1022.34 1022.17 1021.57 1021.24 1020.82 1020.43 1020.22 1020.22 1020.00 1019.76 1019.53 1019.40 1019.17 1019.28 1019.68 1019.89 1019.82 1019.93 1020.01 1020.14 1020.07 1020.22 1020.47 1020.50 1020.52 1020.71 1020.75 1020.85 1020.81 1021.00 1021.09 1021.09 1021.03
1023.25 1023.24 1023.29 1023.36 1023.06 1022.71 1022.82 1023.03 1022.72 1022.63 1022.52 1022.36 1021.93 1021.15 1020.55 1020.11 1020.25 1020.40 1020.04 1019.99 1019.82 1019.46 1019.19 1019.15 1019.23 1019.31 1019.52 1019.54 1019.82 1019.91 1020.13 1020.18 1020.24 1020.41 1020.49 1020.57 1020.63 1020.84 1020.82 1020.76 1020.95 1021.12 1021.14
1023.70 1023.56 1023.82 1023.70 1023.33 1023.32 1023.43 1023.34 1023.18 1023.03 1022.89 1022.56 1022.59 1022.30 1021.63 1020.87 1020.30 1020.14 1020.27 1020.08 1019.98 1019.57 1019.56 1019.42 1019.57 1019.51 1019.43 1019.35 1019.74 1019.88 1020.07 1020.09 1020.23 1020.21 1020.18 1020.36 1020.52 1020.60 1020.62 1020.64 1020.69 1020.80 1020.97
1024.13 1024.09 1024.12 1024.32 1024.27 1023.77 1023.88 1023.83 1023.36 1023.57 1023.38 1023.14 1023.04 1022.91 1022.53 1022.26 1021.54 1020.46 1020.27 1020.46 1020.32 1020.35 1020.22 1019.98 1019.71 1019.93 1019.82 1019.85 1019.83 1020.12 1020.20 1020.14 1020.23 1020.34 1019.96 1019.93 1020.16 1020.33 1020.30 1020.40 1020.49 1020.58 1020.62
1024.54 1024.45 1024.41 1024.48 1024.51 1024.39 1024.27 1024.08 1024.41 1023.96 1023.83 1023.86 1023.49 1023.29 1023.29 1023.23 1022.74 1022.04 1021.08 1021.03 1020.75 1020.97 1020.89 1020.63 1020.52 1020.53 1020.19 1020.17 1020.18 1020.49 1020.44 1020.38 1020.26 1020.27 1020.06 1019.78 1019.79 1019.91 1019.93 1020.01 1020.13 1020.24 1020.22
1024.77 1024.83 1024.66 1024.82 1024.83 1024.84 1024.71 1024.62 1024.63 1024.56 1024.46 1024.25 1024.46 1024.19 1023.83 1023.55 1023.28 1023.22 1022.85 1022.29 1021.96 1021.76 1021.72 1021.55 1021.35 1021.21 1020.84 1020.57 1020.60 1020.76 1020.79 1020.58 1020.52 1020.45 1020.13 1019.87 1019.74 1019.69 1019.61 1019.54 1019.70 1019.80 1019.85
1025.11 1025.03 1024.95 1025.13 1025.07 1025.21 1025.00 1024.88 1025.00 1024.87 1024.88 1024.67 1024.70 1024.67 1024.55 1024.51 1024.19 1024.14 1023.84 1023.48 1023.35 1022.57 1021.96 1021.63 1021.68 1021.48 1021.16 1021.07 1021.25 1021.06 1021.14 1021.19 1021.23 1021.18 1020.59 1020.35 1020.19 1020.02 1019.88 1019.64 1019.48 1019.45 1019.52
1025.44 1025.34 1025.34 1025.54 1025.43 1025.47 1025.25 1025.20 1025.22 1025.20 1025.21 1025.07 1025.10 1024.95 1024.98 1024.80 1024.71 1024.71 1024.66 1024.46 1024.13 1023.25 1022.52 1021.84 1021.81 1021.63 1021.39 1021.63 1021.58 1021.62 1021.56 1021.73 1021.56 1021.58 1021.09 1020.70 1020.53 1020.17 1020.00 1019.85 1019.69 1019.58 1019.40
1025.64 1025.51 1025.52 1025.54 1025.53 1025.52 1025.49 1025.43 1025.34 1025.35 1025.30 1025.26 1025.28 1025.20 1025.08 1025.24 1025.11 1024.93 1025.32 1025.36 1025.13 1024.20 1023.16 1022.49 1022.05 1022.09 1022.11 1021.91 1021.78 1021.76 1021.70 1021.87 1021.76 1021.61 1021.35 1020.81 1020.51 1020.28 1019.89 1019.75 1019.73 1019.65 1019.51
1025.41 1025.61 1025.57 1025.54 1025.70 1025.73 1025.63 1025.41 1025.57 1025.38 1025.40 1025.43 1025.50 1025.33 1025.27 1025.39 1025.49 1025.42 1025.41 1025.62 1025.62 1025.37 1024.29 1022.93 1022.59 1022.42 1022.45 1022.29 1022.14 1022.06 1022.02 1021.87 1021.74 1021.41 1021.15 1020.73 1020.33 1020.16 1019.87 1019.68 1019.59 1019.55 1019.38
1025.66 1025.70 1025.75 1025.87 1025.80 1025.71 1025.73 1025.77 1025.63 1025.45 1025.60 1025.74 1025.67 1025.41 1025.47 1025.51 1025.56 1025.54 1025.45 1025.66 1025.57 1025.80 1025.38 1023.96 1023.40 1023.28 1022.83 1022.44 1022.43 1022.33 1021.99 1021.71 1021.40 1021.05 1020.79 1020.46 1020.08 1019.87 1019.76 1019.55 1019.32 1019.19 1019.13
1025.74 1025.80 1025.85 1025.88 1025.89 1025.90 1025.87 1025.89 1025.82 1025.75 1025.84 1025.77 1025.77 1025.59 1025.51 1025.34 1025.66 1025.68 1025.63 1025.40 1025.52 1025.77 1025.51 1024.79 1024.11 1023.85 1023.53 1023.05 1022.84 1022.48 1021.88 1021.51 1020.92 1020.45 1020.19 1020.09 1019.81 1019.58 1019.43 1019.17 1018.97 1018.72 1018.52
1025.75 1025.88 1025.92 1025.82 1025.79 1025.72 1025.74 1025.94 1025.82 1025.60 1025.80 1025.85 1025.73 1025.52 1025.56 1025.42 1025.40 1025.55 1025.59 1025.30 1025.41 1025.47 1025.47 1025.00 1024.36 1024.08 1023.81 1023.25 1023.12 1022.81 1021.95 1021.34 1020.86 1020.32 1019.83 1019.43 1019.14 1018.81 1018.61 1018.41 1018.19 1017.98 1017.76
1025.91 1026.04 1025.96 1025.89 1025.83 1025.80 1025.82 1025.76 1025.68 1025.71 1025.72 1025.72 1025.69 1025.54 1025.68 1025.50 1025.45 1025.08 1025.65 1025.14 1025.22 1025.19 1025.07 1024.88 1024.33 1023.96 1023.59 1023.42 1023.16 1022.70 1021.93 1021.07 1020.53 1019.86 1019.27 1018.73 1018.39 1018.07 1017.80 1017.57 1017.41 1017.21 1016.86
1026.25 1026.23 1026.14 1026.04 1025.97 1025.88 1025.74 1025.66 1025.58 1025.58 1025.56 1025.49 1025.51 1025.49 1025.30 1025.27 1024.85 1025.01 1025.13 1024.89 1024.89 1025.03 1024.88 1024.66 1024.37 1024.03 1023.71 1023.42 1023.10 1022.38 1021.41 1020.82 1020.18 1019.71 1019.14 1018.68 1018.05 1017.45 1017.04 1016.78 1016.48 1016.22 1015.96
1026.32 1026.28 1026.21 1026.09 1025.99 1025.85 1025.62 1025.63 1025.67 1025.67 1025.57 1025.45 1025.37 1025.14 1024.87 1024.55 1024.31 1024.46 1024.47 1024.61 1024.79 1024.89 1024.80 1024.63 1024.29 1023.85 1023.56 1023.33 1022.97 1022.26 1021.42 1020.60 1019.94 1019.59 1018.72 1018.19 1017.65 1017.01 1016.53 1016.13 1015.77 1015.43 1015.05
1026.33 1026.44 1026.30 1026.21 1026.10 1025.81 1025.37 1025.46 1025.52 1025.65 1025.64 1025.55 1025.25 1024.87 1024.55 1024.27 1024.27 1024.09 1023.96 1023.95 1024.06 1024.16 1024.26 1024.23 1024.01 1023.71 1023.34 1023.17 1022.78 1022.27 1021.59 1020.74 1019.78 1019.28 1018.61 1017.71 1017.89 1016.84 1016.43 1015.87 1015.27 1014.91 1014.61
1026.16 1026.25 1026.29 1026.26 1026.08 1025.82 1025.42 1025.39 1025.40 1025.49 1025.51 1025.33 1025.05 1024.72 1024.39 1024.06 1024.07 1024.13 1024.02 1023.87 1023.88 1023.79 1023.63 1023.65 1023.46 1023.37 1023.00 1022.88 1022.49 1021.91 1021.43 1020.73 1019.95 1019.53 1019.15 1016.66 1017.70 1016.11 1015.90 1014.89 1014.41 1013.93 1013.58
1025.78 1025.85 1025.95 1025.95 1025.87 1025.66 1025.22 1025.17 1025.20 1025.33 1025.31 1025.13 1024.86 1024.50 1024.25 1024.17 1024.17 1023.94 1023.81 1023.82 1023.98 1023.99 1023.78 1023.45 1023.21 1022.99 1022.72 1022.33 1022.07 1021.58 1020.99 1020.22 1019.50 1019.10 1018.95 1016.55 1016.75 1015.40 1014.76 1013.94 1013.57 1013.18 1012.78
1025.31 1025.33 1025.31 1025.41 1025.48 1025.47 1025.03 1024.89 1024.93 1025.11 1025.07 1024.88 1024.61 1024.29 1024.13 1023.96 1023.79 1023.46 1023.43 1023.75 1023.70 1023.45 1023.15 1022.77 1022.56 1022.36 1022.08 1021.73 1021.38 1020.89 1020.44 1019.94 1018.69 1018.27 1018.22 1017.15 1015.86 1014.75 1014.03 1012.66 1012.26 1011.64 1011.07
1024.37 1024.68 1024.82 1024.85 1024.95 1024.98 1024.69 1024.39 1024.52 1024.66 1024.75 1024.56 1024.38 1024.23 1023.93 1023.63 1023.38 1023.26 1023.55 1023.54 1023.33 1023.12 1022.92 1022.61 1022.39 1022.21 1021.96 1021.53 1020.98 1020.74 1020.44 1019.93 1019.27 1017.85 1016.76 1016.97 1015.75 1015.70 1012.46 1010.83 1010.47 1010.40 1010.30
Thickness
5632 5637 5640 5646 5648 5650 5654 5658 5663 5666 5670 5673 5678 5681 5682 5683 5683 5683 5684 5684 5682 5682 5681 5680 5677 5679 5680 5681 5679 5677 5674 5677 5679 5679 5679 5679 5679 5676 5673 5674 5672 5672 5668
5623 5626 5630 5633 5640 5644 5645 5648 5650 5656 5661 5663 5666 5672 5673 5676 5680 5679 5681 5680 5681 5680 5679 5679 5676 5674 5675 5676 5677 5674 5672 5671 5674 5674 5674 5675 5673 5675 5675 5671 5669 5670 5668
5612 5616 5620 5623 5626 5634 5639 5642 5643 5644 5650 5655 5659 5663 5668 5666 5670 5675 5675 5678 5675 5677 5676 5676 5676 5674 5673 5673 5672 5673 5671 5671 5669 5671 5670 5672 5672 5668 5670 5672 5669 5666 5666
5602 5605 5608 5611 5616 5622 5632 5634 5635 5636 5641 5646 5650 5654 5658 5662 5662 5666 5668 5671 5673 5672 5672 5672 5673 5672 5671 5670 5670 5670 5669 5669 5668 5669 5669 5666 5668 5669 5666 5667 5669 5666 5664
5587 5592 5595 5601 5607 5612 5616 5619 5622 5626 5630 5635 5643 5647 5649 5654 5656 5658 5661 5664 5668 5669 5671 5669 5670 5670 5669 5667 5668 5669 5668 5665 5666 5667 5668 5667 5666 5667 5665 5665 5663 5666 5663
5577 5583 5584 5591 5598 5603 5606 5606 5612 5618 5621 5625 5633 5638 5642 5648 5651 5652 5656 5658 5661 5663 5667 5668 5667 5665 5667 5667 5666 5664 5665 5664 5662 5664 5666 5665 5665 5664 5665 5662 5661 5661 5661
5565 5570 5576 5579 5584 5592 5595 5596 5603 5609 5612 5616 5622 5633 5639 5643 5644 5645 5649 5651 5653 5658 5662 5664 5666 5667 5665 5666 5663 5663 5661 5661 5661 5661 5661 5663 5664 5661 5662 5662 5660 5659 5658
5555 5560 5563 5568 5575 5579 5582 5587 5593 5597 5602 5607 5610 5615 5623 5632 5638 5640 5641 5645 5647 5652 5655 5657 5657 5659 5661 5663 5660 5660 5658 5658 5656 5658 5660 5660 5659 5659 5659 5660 5659 5659 5657
5541 5547 5552 5554 5559 5567 5570 5574 5581 5584 5588 5594 5598 5602 5611 5615 5616 5632 5635 5636 5639 5641 5645 5648 5651 5651 5652 5653 5655 5653 5654 5655 5653 5651 5657 5660 5657 5657 5658 5656 5656 5656 5656
5529 5535 5539 5543 5547 5552 5557 5562 5563 5571 5576 5578 5586 5590 5592 5596 5599 5608 5622 5625 5628 5630 5632 5636 5638 5638 5643 5645 5646 5646 5647 5647 5648 5647 5651 5655 5655 5654 5655 5655 5654 5653 5653
5517 5521 5527 5531 5535 5539 5544 5548 5552 5556 5561 5566 5567 5572 5579 5585 5591 5593 5598 5605 5611 5615 5617 5620 5624 5626 5630 5633 5636 5637 5638 5640 5639 5640 5644 5648 5649 5649 5651 5653 5652 5651 5652
5504 5509 5514 5518 5523 5526 5532 5537 5539 5545 5548 5553 5557 5560 5565 5568 5574 5577 5582 5588 5590 5600 5607 5611 5612 5616 5619 5622 5624 5627 5627 5627 5627 5628 5635 5637 5640 5643 5643 5645 5647 5648 5648
5488 5495 5500 5503 5509 5513 5519 5523 5527 5531 5535 5540 5544 5548 5552 5557 5560 5563 5566 5570 5576 5586 5592 5599 5601 5603 5607 5611 5613 5613 5615 5613 5616 5617 5622 5627 5630 5634 5636 5637 5639 5640 5641
5474 5479 5486 5490 5495 5500 5505 5509 5515 5519 5522 5527 5531 5535 5539 5542 5546 5551 5550 5552 5555 5568 5577 5582 5586 5591 5594 5597 5600 5600 5604 5603 5606 5607 5610 5616 5621 5624 5628 5629 5629 5631 5633
5460 5464 5470 5476 5479 5484 5489 5496 5500 5505 5509 5513 5516 5521 5525 5528 5530 5533 5537 5538 5540 5543 5554 5568 5573 5576 5577 5580 5584 5587 5589 5592 5594 5597 5601 5605 5611 5614 5617 5619 5620 5621 5623
5442 5447 5453 5457 5463 5468 5473 5478 5484 5490 5493 5496 5501 5506 5509 5512 5515 5518 5522 5523 5527 5527 5531 5547 5552 5556 5561 5564 5565 5570 5575 5579 5583 5587 5591 5595 5599 5602 5604 5607 5610 5611 5611
5425 5430 5435 5440 5445 5450 5455 5461 5466 5471 5474 5479 5484 5488 5493 5498 5498 5501 5505 5509 5511 5511 5517 5525 5532 5536 5541 5547 5548 5551 5558 5564 5571 5577 5581 5583 5587 5590 5592 5595 5598 5601 5603
5407 5412 5418 5424 5429 5434 5439 5443 5448 5454 5457 5461 5467 5472 5475 5481 5483 5485 5488 5493 5495 5497 5500 5508 5514 5517 5522 5527 5530 5534 5540 5547 5554 5560 5566 5571 5575 5580 5582 5584 5587 5590 5594
5389 5393 5399 5405 5411 5416 5421 5426 5431 5435 5440 5444 5448 5453 5455 5460 5464 5470 5469 5475 5477 5481 5484 5491 5498 5501 5505 5507 5511 5517 5524 5532 5538 5544 5550 5555 5559 5563 5568 5572 5575 5578 5582
5371 5376 5381 5387 5393 5398 5404 5409 5414 5418 5422 5427 5431 5434 5439 5443 5449 5451 5453 5458 5461 5463 5467 5471 5477 5482 5486 5489 5492 5500 5509 5514 5521 5525 5532 5536 5542 5548 5553 5557 5561 5565 5570
5354 5359 5364 5369 5374 5380 5386 5390 5394 5399 5404 5409 5413 5418 5423 5429 5434 5435 5439 5439 5442 5444 5447 5452 5457 5463 5466 5469 5473 5481 5489 5498 5503 5506 5515 5521 5526 5533 5537 5540 5544 5547 5552
5339 5343 5348 5353 5357 5363 5370 5374 5378 5381 5386 5390 5395 5402 5407 5412 5416 5419 5423 5426 5429 5430 5432 5434 5438 5442 5448 5451 5455 5460 5468 5476 5485 5489 5494 5508 5501 5514 5516 5520 5525 5529 5533
5324 5327 5331 5336 5341 5347 5353 5357 5361 5365 5369 5374 5380 5385 5390 5396 5400 5402 5406 5410 5413 5414 5417 5419 5424 5427 5431 5432 5437 5444 5449 5457 5466 5468 5469 5496 5479 5497 5496 5506 5510 5514 5518
5309 5313 5318 5322 5327 5332 5338 5343 5347 5351 5354 5359 5364 5370 5374 5377 5381 5386 5390 5393 5394 5395 5398 5402 5407 5411 5413 5417 5420 5426 5433 5442 5449 5450 5448 5474 5469 5483 5484 5493 5496 5500 5504
5296 5301 5306 5310 5312 5316 5323 5329 5333 5335 5340 5345 5350 5354 5358 5362 5366 5372 5377 5376 5378 5381 5384 5389 5393 5396 5400 5403 5406 5412 5418 5424 5436 5438 5436 5445 5456 5467 5474 5488 5489 5491 5497
5286 5290 5293 5298 5302 5303 5310 5316 5320 5321 5324 5331 5336 5339 5343 5348 5352 5356 5358 5361 5364 5366 5370 5375 5378 5381 5384 5389 5393 5397 5401 5407 5412 5425 5431 5427 5439 5437 5469 5484 5486 5485 5486